Regional Weather Roundup
Issued by NWS

Home | Current Version | Previous Version | Graphics & Text | Print | Product List | Glossary Off
Versions: 1 2 3 4 5 6 7 8 9 10 11 12 13 14 15 16 17 18 19 20 21 22 23 24 25 26 27 28 29 30 31 32 33 34 35 36 37 38 39 40 41 42 43 44 45 46 47 48 49 50

000
ASUS43 KDMX 230907
RWRIA

WEATHER ROUNDUP FOR IOWA
NATIONAL WEATHER SERVICE DES MOINES IA
400 AM CDT SAT AUG 23 2014

NOTE: "FAIR" INDICATES FEW OR NO CLOUDS BELOW 12,000 FEET WITH NO
SIGNIFICANT WEATHER AND/OR OBSTRUCTIONS TO VISIBILITY.

* - THESE STATIONS ARE NOT NWS STATIONS...THUS NOT UNDER NWS
QUALITY CONTROL.  THEY ALSO DO NOT REPORT WEATHER SUCH
AS PRECIPITATION OR FOG.

IAZ001>003-012>014-020>022-031>034-043>046-231000-
   NORTHWEST IOWA

CITY           SKY/WX    TMP DP  RH WIND       PRES   REMARKS
CARROLL *      CLOUDY    72  70  94 CALM      29.95R
CHEROKEE *     CLOUDY    73  72  94 W16       29.98R
DENISON *      RAIN      72  72 100 NW13      29.96R
LE MARS *      RAIN      70  68  94 VRB6G12   29.97F
ORANGE CITY *  RAIN      72  66  83 W15       29.98R
SHELDON *      CLOUDY    72  70  94 E5        29.95S
SIOUX CITY     RAIN      73  69  87 N9        29.94F
SPENCER        CLOUDY    72  69  90 E6        29.95F
STORM LAKE *   CLOUDY    72  72 100 E6        29.97R
$$

IAZ055>058-069>071-079>083-090>094-231000-
   SOUTHWEST IOWA

CITY           SKY/WX    TMP DP  RH WIND       PRES   REMARKS
ATLANTIC *     LGT RAIN  70  70 100 VRB5      29.97R
AUDUBON *      HVY RAIN  75  73  94 SW6       29.98R
CLARINDA *     LGT RAIN  73  72  94 NW13G29   29.95R
COUNCIL BLFS * CLOUDY    70  70 100 NE6       29.97R
CRESTON *      CLOUDY    72  70  94 NE9       29.92S
HARLAN  *      RAIN      72  72 100 S6        30.01R
LAMONI         MOCLDY    78  76  93 S8        29.88F HX  81
RED OAK *      CLOUDY    72  70  94 N13       29.95R FOG
SHENANDOAH *   DRIZZLE   72  70  94 NE9G21    29.93S
$$

IAZ047>049-059>061-072>074-084-231000-
   CENTRAL IOWA

CITY           SKY/WX    TMP DP  RH WIND       PRES   REMARKS
AMES           CLOUDY    74  72  93 E5        29.93R
ANKENY *       CLOUDY    77  77 100 VRB6      29.91R FOG
CHARITON *     MOCLDY    77  75  94 E9        29.89F FOG
DES MOINES     FOG       77  76  96 NE9       29.88S THUNDER VSB 1/2
GRINNELL*      PTCLDY    72  70  94 E5        29.92F
KNOXVILLE *    CLOUDY    77  75  94 E10       29.89F FOG
MARSHALLTOWN   MOCLDY    71  70  96 E9        29.90F
PELLA *        MOCLDY    75  75 100 E6        29.91F
PERRY *        FOG       75  75 100 CALM      29.94R VSB 3/4
$$

IAZ004>006-015-016-023>025-035-036-231000-
   NORTH CENTRAL IOWA

CITY           SKY/WX    TMP DP  RH WIND       PRES   REMARKS
ALGONA *       CLOUDY    72  70  94 E7        29.94F FOG
CLARION *      CLEAR     72  72 100 E10G16    29.92F
ESTHERVILLE    CLOUDY    67  67 100 E5        29.95F FOG
FORT DODGE *   CLOUDY    72  70  94 E6        29.96R
MASON CITY     MOCLDY    69  68  96 NE5       29.95F FOG
FOREST CITY *  PTCLDY    70  70 100 E5        29.94F
IOWA FALLS *   CLOUDY    73  72  94 NE6       29.93F
$$

IAZ007>011-017>019-026>030-037>042-050>054-066-231000-
   NORTHEAST IOWA

CITY           SKY/WX    TMP DP  RH WIND       PRES   REMARKS
CEDAR RAPIDS   CLOUDY    74  74 100 E8        29.91F FOG
CHARLES CITY * PTCLDY    72  70  94 NE8       29.94F
CLINTON *      CLOUDY    72  72 100 E3        29.98F
DECORAH *      CLOUDY    72  70  94 VRB5      29.95F FOG
DUBUQUE        CLOUDY    72  71  97 CALM      29.97S
MONTICELLO *   RAIN      75  75 100 E5        29.94F
OELWEIN *      CLOUDY    75  75 100 NE5       29.94F FOG
WATERLOO       MOCLDY    74  72  93 NE5       29.91F
$$

IAZ064-065-067-068-078-231000-
   EAST CENTRAL IOWA

CITY           SKY/WX    TMP DP  RH WIND       PRES   REMARKS
DAVENPORT      CLOUDY    74  72  93 E5        29.95S FOG
IOWA CITY      LGT RAIN  75  75 100 S7        29.93F FOG
MT. PLEASANT * CLOUDY    73  73 100 CALM      29.93F FOG
MUSCATINE *    CLOUDY    73  72  94 CALM      29.94F FOG
QUAD CITIES    MOCLDY    76  73  91 E5        29.94S
$$

IAZ062-063-075>077-085>089-095>099-231000-
   SOUTHEAST IOWA

CITY           SKY/WX    TMP DP  RH WIND       PRES   REMARKS
BURLINGTON     CLEAR     75  74  96 N5        29.94R FOG
FAIRFIELD *    MOCLDY    75  73  94 CALM      29.93F FOG
FORT MADISON * CLEAR     75  75 100 CALM      29.95R FOG
KEOKUK *       CLEAR     75  75 100 CALM      29.92F
OSKALOOSA *    CLOUDY    75  73  94 E7        29.92F
CENTERVILLE *  MOCLDY    77  77 100 SE6       29.92F
OTTUMWA        CLOUDY    76  75  97 NE8       29.91F FOG
WASHINGTON *   CLOUDY    75  75 100 N13       29.95S FOG
$$

ABBREVIATIONS USED IN REMARKS
   TC - TEMPERATURES IN CELSIUS
  WCI - WIND CHILL INDEX
   HX - HEAT INDEX
  VSB - VISIBILITY
$$



USA.gov is the U.S. government's official web portal to all federal, state and local government web resources and services.